Regional Weather Roundup
Issued by NWS Portland, ME

Home | Current Version | Previous Version | Text Only | Print | Product List | Glossary On
Versions: 1 2 3 4 5 6 7 8 9 10 11 12 13 14 15 16 17 18 19 20 21 22 23 24 25 26 27 28 29 30 31 32 33 34 35 36 37 38 39 40 41 42 43 44 45 46 47 48 49 50
000
ASUS41 KGYX 291310
RWRGYX
WEATHER ROUNDUP FOR MAINE AND NEW HAMPSHIRE
NATIONAL WEATHER SERVICE GRAY ME
900 AM EDT WED MAR 29 2017

MEZ002-005-006-010-012-015-018-020-021-024-026-027-029-291400-
MAINE

CITY           SKY/WX    TMP DP  RH WIND       PRES   REMARKS
PORTLAND       PTSUNNY   38  33  82 N9        30.01S
SANFORD        CLOUDY    37  35  92 N8        30.01S FOG
BAR HARBOR     CLOUDY    35  33  92 N9        29.99F
WISCASSET      CLOUDY    39  35  86 VRB6      30.01F
ROCKLAND       CLOUDY    36  34  92 N6        29.99F
FRYEBURG       PTSUNNY   41  30  65 N12G21    30.01S
LEWISTONAUBURN CLOUDY    36  33  89 N9        30.01S
AUGUSTA        CLOUDY    35  31  85 N12       30.00F
WATERVILLE     CLOUDY    36  35  96 N8        29.97F
BANGOR         CLOUDY    34  32  92 N12       30.01S
GREENVILLE       N/A     29  29 100 N8        29.95S
MILLINOCKET    CLOUDY    33  31  92 N5        30.02F
HOULTON        CLOUDY    31  29  92 N12       30.00F
PRESQUE ISLE   MIX PCPN  30  28  92 N7        30.03F
FRENCHVILLE    CLOUDY    27  23  85 NE3       30.00S
CARIBOU        CLOUDY    28  25  88 N7        30.01F
$$

NHZ002-005-008-009-011-012-014-291400-
NEW HAMPSHIRE

CITY           SKY/WX    TMP DP  RH WIND       PRES   REMARKS
PORTSMOUTH     CLOUDY    38  36  93 N8        30.00S
ROCHESTER      CLOUDY    38  35  89 N5        29.99S
NASHUA         CLOUDY    40  35  83 NW8       30.01F
MANCHESTER     CLOUDY    40  33  76 NW8       30.00S
CONCORD        CLOUDY    39  34  82 NW7       30.01S
LACONIA        PTSUNNY   38  33  82 NW3       30.01S
PLYMOUTH       CLOUDY    40  30  66 NW3       30.02R
BERLIN         CLOUDY    36  23  59 NW7       30.01F
WHITEFIELD     CLOUDY    36  29  75 CALM      30.03F
JAFFREY        MOSUNNY   39  31  72 CALM      30.00S
KEENE          CLOUDY    40  32  73 N9        30.04R
LEBANON        CLOUDY    39  34  82 NW5       30.05R
MT WASHINGTON  CLOUDY    18  16  93 NW48        N/A  WCI  -6
$$

VTZ005-007-008-291400-
VERMONT

CITY           SKY/WX    TMP DP  RH WIND       PRES   REMARKS
ST JOHNSBURY     N/A     36  30  79 MISG      30.05R
MONTPELIER     CLOUDY    33  31  92 NW7       30.10R
BURLINGTON     CLOUDY    36  31  82 N5        30.13R
$$

MAZ007-012-024-CTZ003-RIZ002-NYZ038-NYZ072-291400-
SOUTHERN NEW ENGLAND AND NY

CITY           SKY/WX    TMP DP  RH WIND       PRES   REMARKS
BOSTON         CLOUDY    39  37  92 N10       30.01S
WORCESTER      CLOUDY    37  31  78 NE12G22   29.98S
NANTUCKET      CLOUDY    41  38  89 N22G29    29.92S
PROVIDENCE     CLOUDY    41  37  86 N14       30.00R
HARTFORD       PTSUNNY   42  37  82 NW10      30.04R
ALBANY         LGT RAIN  39  35  86 N6        30.12R
NEW YORK CITY  CLOUDY    47  38  71 N12       30.06R
$$

ANZ081-ANZ082-ANZ150-NHZ014-MEZ023>029-291400-
COASTAL MARINE OBSERVATIONS

STATION/POSITION TIME  TEMP    WIND        PRES    WAVE
                       AIR SEA DIR/SP/G            HT/PER
                 (UTC) (F)     (DEG/KT/KT) (MB)    (FT/S)
MOUNT DESERT ROC 1300   35                 1014.8F
MATINICUS ROCK   1200   35      10/ 16/ 17 1014.7R
ISLE OF SHOALS   1200   37      10/ 10/ 11 1015.6R
JEFFREYS LEDGE   1206      41                N/A     5/ 8
CASHES LEDGE BUO 1250   36 40              1014.5F   5/ 6
GEORGES BANK BUO 1250   39 40              1005.7F   6/ 8
$$

.............KEY..............
   WCI - WIND CHILL
   TC  - TEMPERATURE IN CELSIUS
   VSB - VISIBILITY IN MILES
   HX  - HEAT INDEX
   FAIR- INDICATES FEW OR NO CLOUDS BELOW 12,000 FT, WITH NO
         SIGNIFICANT WEATHER AND/OR OBSTRUCTIONS TO VISIBILITY.






USA.gov is the U.S. government's official web portal to all federal, state and local government web resources and services.